www.pogodaiklimat.ru

Погода и климат >> Архив погоды >> Россия >> Крым >> Евпатория


ПОГОДА в Евпатории

АРХИВ ПОГОДЫ в Евпатории

Время (UTC), дата Ветер
(напр.,м/с)
 
Видим.   Явления Облачность Т
(С)
Тd
(С)
f
(%)
Тe
(С)
Тes
(С)
Комфортность P
(гПа)
Po
(гПа)
Тmin
(С)
Tmax
(С)
R
(мм)
R24
(мм)
S
(см)
03 15.10 С 2 10 км 7 баллов +8.5 +5.2 80 +7 +7 по сезону 1022.5 1021.3 +8.3 0.0
06 15.10 СВ 2 50 км 7 баллов +11.4 +6.9 74 +10 +11 по сезону 1022.5 1021.3 +8.3 0.0
09 15.10 З 3 10 км слабый дождь 10 баллов +13.6 +11.8 89 +12 +12 по сезону 1022.5 1021.3
12 15.10 З 4 20 км 10 баллов +16.1 +13.2 83 +15 +15 по сезону 1021.2 1020.0
15 15.10 З 4
{10}
20 км 10 баллов +15.8 +14.0 89 +15 +15 тепло 1021.2 1020.0 0.8
18 15.10 ЮЗ 4 10 км 10 баллов +16.4 +14.2 87 +16 +16 тепло 1019.9 1018.7 +17.2 0.8
21 15.10 СЗ 3 10 км 10 баллов +17.5 +14.2 81 +18 +18 тепло 1019.9 1018.7
00 16.10 СЗ 5
{10}
10 км 6 баллов +16.9 +13.2 79 +16 +16 тепло 1019.9 1018.7
03 16.10 С 3
{11}
ясно +13.9 +11.2 84 -9 -9 очень
холодно
1021.7 1020.0
06 16.10 С 5 20 км 2 балла +12.5 +8.4 76 +10 +11 по сезону 1023.9 1022.7 +10.5
09 16.10 С 5
{10}
20 км 1 балл +16.8 +5.1 46 +16 +19 тепло 1025.2 1024.0
12 16.10 СЗ 5
{11}
50 км 2 балла +17.6 +5.2 44 +17 +19 тепло 1025.2 1024.0
15 16.10 З 5
{11}
50 км 10 баллов +16.0 +6.4 53 +15 +15 тепло 1026.5 1025.3
18 16.10 З 3 10 км 2 балла +13.4 +9.6 78 +12 +12 тепло 1026.5 1025.3 +18.7
21 16.10 З 3 10 км ясно +12.9 +10.6 86 +11 +11 по сезону 1026.5 1025.3
00 17.10 З 2 10 км ясно +12.1 +10.5 90 +11 +11 тепло 1026.5 1025.3
03 17.10 З 3 10 км ясно +12.7 +12.1 96 +11 +11 по сезону 1025.2 1024.0 +11.3
06 17.10 З 3 20 км 2 балла +16.6 +14.8 89 +16 +17 тепло 1025.2 1024.0 +11.3
09 17.10 ЮЗ 5
{11}
20 км 2 балла +19.3 +15.0 76 +21 +23 комфорт 1025.2 1024.0
12 17.10 З 6
{10}
20 км 7 баллов +18.8 +15.7 82 +19 +20 тепло 1023.9 1022.7
15 17.10 З 3 20 км ясно +16.8 +15.0 89 +17 +17 тепло 1023.9 1022.7
18 17.10 ЮЗ 2 10 км ясно +15.3 +14.8 97 +15 +15 тепло 1023.9 1022.7 +20.4
21 17.10 ЮЗ 2 10 км 7 баллов +15.7 +15.5 99 +16 +16 тепло 1023.9 1022.7
00 18.10 СВ 3 4000 м дымка 10 баллов +13.6 +13.4 99 +12 +12 тепло 1023.9 1022.7
03 18.10 СВ 1 10 км 7 баллов +14.4 +13.9 97 +15 +15 тепло 1023.9 1022.7 +12.8
06 18.10 СВ 2 4000 м дымка 10 баллов +14.5 +13.9 96 +14 +14 тепло 1025.2 1024.0 +12.8
09 18.10 В 4 4000 м дымка 7 баллов +14.1 +12.8 92 +13 +14 тепло 1025.2 1024.0
12 18.10 Ю 3 20 км ясно +18.5 +14.4 77 +19 +23 тепло 1022.5 1021.3
15 18.10 ЮЗ 3 10 км ясно +16.4 +14.8 90 +16 +16 тепло 1022.5 1021.3
18 18.10 З 2 10 км 7 баллов +15.2 +14.6 96 +15 +15 тепло 1022.5 1021.3 +18.7
21 18.10 ЮЗ 2 10 км 10 баллов +16.2 +14.6 90 +16 +16 тепло 1022.5 1021.3
00 19.10 ЮЗ 3 10 км 10 баллов +16.0 +14.4 90 +16 +16 тепло 1022.5 1021.3
03 19.10 З 3 10 км 7 баллов +15.4 +13.8 90 +15 +15 тепло 1021.2 1020.0 +14.4
06 19.10 ЮЗ 2 20 км 10 баллов +16.2 +14.6 90 +16 +16 тепло 1021.2 1020.0 +15.0
09 19.10 ЮЗ 3 20 км 9 баллов +17.4 +14.7 84 +17 +18 тепло 1021.2 1020.0
12 19.10 З 2 20 км 7 баллов +17.2 +13.7 80 +18 +19 тепло 1021.2 1020.0
15 19.10 ЮЗ 2 20 км 5 баллов +15.8 +13.8 88 +16 +16 тепло 1019.9 1018.7
18 19.10 ЮЗ 2 10 км 10 баллов +15.6 +13.4 87 +15 +15 тепло 1019.9 1018.7 +18.8
21 19.10 ЮЗ 3 10 км 10 баллов +15.8 +13.3 85 +15 +15 тепло 1019.9 1018.7
00 20.10 ЮЗ 3 10 км 10 баллов +15.7 +13.4 86 +15 +15 тепло 1019.9 1018.7
03 20.10 З 2 10 км 10 баллов +15.6 +13.1 85 +15 +15 тепло 1019.9 1018.7 +15.3
06 20.10 ЮЗ 3 20 км 10 баллов +15.9 +12.5 80 +15 +15 тепло 1019.9 1018.7 +15.3
09 20.10 Ю 3 20 км 10 баллов +13.2 +13.5 102 +12 +12 по сезону 1019.9 1018.7
12 20.10 ЮЗ 3 20 км 10 баллов +17.4 +12.3 72 +17 +17 тепло 1019.9 1018.7
15 20.10 ЮЗ 2 20 км 10 баллов +16.3 +11.7 74 +16 +16 тепло 1019.9 1018.7
18 20.10 штиль 0 10 км ясно +12.7 +11.3 91 +12 +12 тепло 1019.9 1018.7 +18.3
21 20.10 СВ 1 10 км 10 баллов +12.2 +10.6 90 +12 +12 тепло 1019.9 1018.7
00 21.10 С 2 10 км 10 баллов +13.9 +11.2 84 +13 +13 тепло 1019.9 1018.7
03 21.10 З 1 10 км 10 баллов +13.9 +11.1 83 +14 +14 тепло 1018.5 1017.3 +11.7
06 21.10 ЮВ 1 20 км 10 баллов +15.0 +10.0 72 +16 +16 тепло 1019.9 1018.7 +11.7
09 21.10 Ю 1 20 км 10 баллов +16.0 +10.3 69 +17 +17 тепло 1018.5 1017.3
12 21.10 ЮЗ 3 20 км 10 баллов +16.6 +10.9 69 +16 +16 тепло 1017.2 1016.0
15 21.10 штиль 0 20 км 10 баллов +16.6 +9.8 64 +17 +17 тепло 1017.2 1016.0
18 21.10 С 2 10 км 10 баллов +15.0 +9.6 70 +15 +15 тепло 1015.9 1014.7 +17.5
21 21.10 СЗ 1 10 км 10 баллов +14.4 +9.2 71 +15 +15 тепло 1015.9 1014.7

 

Местоположение метеостанции Евпатория (Крым, Россия): широта 45.18 долгота 33.37 высота над уровнем моря 10 м.

В архиве по умолчанию представлена погода в Евпатории за последнюю неделю. Архивные данные за месяц целиком и за предыдущие месяцы, начиная с января 2011 года, Вы можете получить, выбрав интересующий диапазон дат из раскрывающегося списка и нажав кнопку "Ввод!".

Внимание! Время в таблицах - всемирное. Для получения местного времени необходимо прибавить поправку, которая в Евпатории равна 3 ч.

Смотрите также архив погоды в соседних городах и на ближайших метеорологических станциях:

Погода в Симферополе (Крым, Россия) (50 км)
Погода в Севастополе (город Севастополь, Россия) (64 км)
Погода в Черноморском (Крым, Россия) (65 км)
Погода в Херсонесском Маяке (город Севастополь, Россия) (67 км)
Погода в Клепинино (Крым, Россия) (74 км)
Погода в Ай-Петри (Крым, Россия) (97 км)
Погода в Хорлах (Херсонская область, Украина) (97 км)
Погода в Белогорске (Крым, Россия) (98 км)
Погода в Алуште (Крым, Россия) (99 км)
Погода в Ялте (Крым, Россия) (100 км)

Пояснения к столбцам:

Ветер - указаны скорость ветра в м/с - средняя за 10 мин, порывы в срок и между сроками (в фигурных скобках) и направление, откуда дует ветер: С - северный, СВ - северо-восточный, В - восточный, ЮВ - юго-восточный, Ю - южный, ЮЗ - юго-западный, З - западный, СЗ - северо-западный.
Видимость - горизонтальная дальность видимости в метрах или километрах. При видимости от 1 до 10 км при отсутствии осадков обычно наблюдается дымка, при ухудшении видимости до 1 км и менее - туман. В сухую погоду видимость может ухудшаться дымом, пылью или мглою.
Явления - указаны атмосферные явления, наблюдавшиеся в срок или в последний час перед сроком; фигурными скобками обозначены явления, наблюдавшиеся между сроками (за 1-3 часа до срока); квадратными скобками обозначены град или гололедные отложения с указанием их диаметра в мм.
Облачность - указаны через наклонную черту общая и нижняя облачность в баллах и высота нижней границы облаков в метрах; квадратными скобками обозначены формы облаков: Ci - перистые, Cs - перисто-слоистые, Cc - перисто-кучевые, Ac - высококучевые, As - высокослоистые, Sc - слоисто-кучевые, Ns - слоисто-дождевые, Cu - кучевые, Cb - кучево-дождевые. Подробнее классификацию облаков см. в Атласе облаков (PDF).
T - Температура воздуха - температура, измеренная на высоте 2 м над землей.
Td - Температура точки росы - температура, при понижении до которой содержащийся в воздухе водяной пар достигнет насыщения.
f - Относительная влажность воздуха - влажноcть воздуха, измеренная на высоте 2 м над землей.
Te - Эффективная температура - температура, которую ощущает одетый по сезону человек в тени. Характеристика душности погоды. При расчете учитывается влияние влажности воздуха и скорости ветра на теплоощущения человека.
Tes - Эффективная температура на солнце - температура, которую ощущает человек, с поправкой на солнечный нагрев. Характеристика знойности погоды. Зависит от высоты солнца над горизонтом, облачности и скорости ветра. Ночью, в пасмурную погоду, а также при ветре 12 м/с и более поправка равна нулю.
P - Атмосферное давление - приведенное к уровню моря атмосферное давление.
Po - Атмосферное давление - измеренное на уровне метеостанции атмосферное давление.
Tmin - Минимальная температура - минимум температуры воздуха на высоте 2 м над землей.
Tmax - Максимальная температура - максимум температуры воздуха на высоте 2 м над землей.
R - Количество осадков - Количество выпавших осадков за период времени, мм. При наведении курсора мыши на число - период времени, за который выпало указанное количество осадков.
R24 - Количество осадков - Количество выпавших осадков за 24 часа, мм.
S - Снежный покров - Высота снежного покрова, см. При наведении курсора мыши на число - состояние снежного покрова и степень покрытия местности в баллах.